This is the latest recevied weather packets stored in our database for station/object K6CEG. If no packets are shown the sender has not sent any weather packets the latest 10 day(s).
| Time | Temp. | Humidity | Pressure | Rain* | Wind** | Luminosity | Snow |
|---|---|---|---|---|---|---|---|
| 1788671135 | 24.44° C | 40% | 1015.1 hPa | 0 mm | - | 0 W/m² | - |
| 1788670830 | 24.44° C | 40% | 1015.2 hPa | 0 mm | - | 0 W/m² | - |
| 1788670528 | 24.44° C | 41% | 1015.1 hPa | 0 mm | - | 0 W/m² | - |
| 1788670224 | 23.89° C | 41% | 1015.2 hPa | 0 mm | - | 0 W/m² | - |
| 1788669920 | 23.89° C | 42% | 1015.1 hPa | 0 mm | - | 0 W/m² | - |
| 1788669615 | 23.89° C | 42% | 1015.1 hPa | 0 mm | - | 0 W/m² | - |
| 1788669340 | 24.44° C | 42% | 1015.2 hPa | 0 mm | - | 0 W/m² | - |
| 1788669007 | 24.44° C | 41% | 1015.1 hPa | 0 mm | - | 0 W/m² | - |
| 1788668705 | 25° C | 41% | 1015.3 hPa | 0 mm | - | 0 W/m² | - |
| 1788668405 | 25° C | 41% | 1015.2 hPa | 0 mm | - | 0 W/m² | - |
| 1788668102 | 24.44° C | 41% | 1014.8 hPa | 0 mm | - | 0 W/m² | - |
| 1788667801 | 25° C | 40% | 1014.9 hPa | 0 mm | - | 0 W/m² | - |
| 1788667496 | 25° C | 40% | 1014.7 hPa | 0 mm | - | 0 W/m² | - |
| 1788667191 | 25.56° C | 39% | 1015.1 hPa | 0 mm | - | 0 W/m² | - |
| 1788666887 | 25.56° C | 38% | 1014.9 hPa | 0 mm | - | 0 W/m² | - |
| 1788666583 | 25.56° C | 36% | 1015.1 hPa | 0 mm | - | 0 W/m² | - |
| 1788666283 | 25° C | 35% | 1014.9 hPa | 0 mm | - | 0 W/m² | - |
| 1788665979 | 25° C | 35% | 1014.7 hPa | 0 mm | - | 0 W/m² | - |
| 1788665678 | 25° C | 34% | 1014.8 hPa | 0 mm | - | 0 W/m² | - |
| 1788665374 | 25.56° C | 34% | 1014.6 hPa | 0 mm | - | 0 W/m² | - |
| 1788665071 | 25.56° C | 33% | 1014.5 hPa | 0 mm | - | 0 W/m² | - |
| 1788664770 | 26.11° C | 33% | 1014.7 hPa | 0 mm | - | 0 W/m² | - |
| 1788664466 | 26.67° C | 33% | 1014.4 hPa | 0 mm | - | 0 W/m² | - |
| 1788664161 | 26.67° C | 32% | 1014.3 hPa | 0 mm | - | 0 W/m² | - |
| 1788663856 | 26.11° C | 32% | 1014.5 hPa | 0 mm | - | 0 W/m² | - |
* Rain latest hour (hover to see other rain measurements)
** Current wind speed in m/s (hover to see current wind gust speed)